Terminal Aerodrome Forecast
Issued by NWS Blacksburg, VA

Home | Current Version | Previous Version | Text Only | Print | Product List | Glossary On
Versions: 1 2 3 4 5 6 7 8 9 10 11 12 13 14 15 16 17 18 19 20 21 22 23 24 25 26 27 28 29 30 31 32 33 34 35 36 37 38 39 40 41 42 43 44 45 46 47 48 49 50
000
FTUS41 KRNK 042321
TAFDAN
TAF
KDAN 042321Z 0500/0524 22010KT P6SM OVC050 WS020/22040KT
     FM050400 35008KT P6SM -RA BKN025
     FM050700 02009KT 6SM -RA BR OVC012
     FM051000 02008KT 3SM -RA BR OVC008
     FM051600 03012KT 2SM -RAPL BR OVC012
     FM052300 04012KT 4SM -SN BR OVC012=

USA.gov is the U.S. government's official web portal to all federal, state and local government web resources and services.